[[[{"header":{"parameterUnit":"kt","parameterCategory":2,"dx":1,"dy":1,"la1":30.253999710083008,"la2":30.299108505249023,"lo1":-89.0895004272461,"lo2":-89.04439544677734,"nx":28,"ny":28,"refTime":"2022-10-06T21:00:00:Z","depth":0,"parameterNumber":1,"parameterNumberName":"U-component_of_WINDS"},"data":[-0.0097,-0.0141,-0.0142,-0.0192,-0.0202,-0.0237,-0.025,-0.0266,-0.028,-0.0321,-0.0345,-0.0351,-0.0366,-0.0395,-0.0421,-0.0423,-0.0435,-0.0448,-0.0449,-0.0386,-0.0377,-0.0369,-0.036,-0.045,-0.0451,-0.0516,-0.0516,-0.0517,-0.0048,-0.0058,-0.0085,-0.0113,-0.0136,-0.0123,-0.0144,-0.0165,-0.0196,-0.0213,-0.0237,-0.0274,-0.0303,-0.0313,-0.0342,-0.0362,-0.0359,-0.037,-0.037,-0.0373,-0.0304,-0.0294,-0.0372,-0.0372,-0.0372,-0.0372,-0.0372,-0.0372,0.004,0.0014,-0.0004,-0.0034,-0.0048,-0.0066,-0.0092,-0.0099,-0.0125,-0.0156,-0.0152,-0.0188,-0.0206,-0.0242,-0.0254,-0.0282,-0.0271,-0.0284,-0.0288,-0.0292,-0.0296,-0.0204,-0.0287,-0.0287,-0.0287,-0.0286,-0.0286,0,0.0103,0.0103,0.0077,0.005,0.0028,0.0007,-0.0013,-0.0028,-0.0029,-0.0051,-0.0084,-0.0103,-0.014,-0.0171,-0.0198,-0.0209,-0.02,-0.0199,-0.0209,-0.0212,-0.0211,-0.0214,-0.0104,-0.0197,-0.0197,-0.0196,-0.0196,-0.0195,0.0189,0.0159,0.014,0.0121,0.011,0.008,0.0062,0.0063,0.0044,0.002,-0.0004,-0.0034,-0.0059,-0.011,-0.012,-0.0148,-0.0145,-0.018,-0.0149,-0.015,-0.0148,-0.0147,-0.015,-0.0187,-0.0188,-0.0189,-0.019,0,0.0238,0.0235,0.0187,0.017,0.0165,0.0133,0.0119,0.0092,0.0088,0.0051,0.0043,0.0035,0.0003,-0.0001,-0.0038,-0.0039,-0.0092,-0.0086,-0.0085,-0.0085,-0.0119,-0.0116,-0.0224,-0.0238,-0.0142,-0.0143,-0.0144,0,0.031,0.027,0.0267,0.0239,0.0196,0.0197,0.0154,0.0145,0.0129,0.01,0.011,0.0083,0.0082,0.0055,0.0053,0.001,0.0003,-0.0001,-0.0002,-0.0004,-0.0003,-0.0016,-0.0013,0.0001,0.0001,0.0002,0.0002,0,0.0384,0.0336,0.0292,0.028,0.0257,0.0236,0.0225,0.0207,0.0189,0.0165,0.0153,0.0125,0.0109,0.0087,0.0085,0.0106,0.0033,0.0061,0.0028,0.0028,0.0009,0.001,-0.0082,0.0003,0.0003,0.0003,0.0003,0,0.044,0.0416,0.0352,0.0333,0.032,0.0291,0.0263,0.0237,0.0217,0.0214,0.0195,0.02,0.0163,0.0191,0.0139,0.0167,0.0151,0.0144,0.0142,0.0135,0.0166,0.0112,0.0028,0.0018,0.0134,0.0135,0.0136,0,0.0526,0.0461,0.0461,0.0401,0.037,0.0382,0.035,0.0331,0.0324,0.0297,0.029,0.0258,0.0278,0.0268,0.0243,0.0233,0.0197,0.0238,0.0197,0.0196,0.02,0.0123,0.011,0.0047,0.015,0.0148,0.0147,0,0.0591,0.0562,0.0551,0.0537,0.0512,0.0486,0.045,0.0419,0.0401,0.0379,0.0347,0.0304,0.0317,0.0299,0.0299,0.0274,0.0222,0.0291,0.029,0.0277,0.0157,0.0145,0.0134,0.0228,0.0226,0.0225,0.0158,0,0.0673,0.064,0.0611,0.0579,0.0559,0.0521,0.0515,0.0494,0.0497,0.049,0.0444,0.0426,0.0394,0.0381,0.0383,0.0326,0.0334,0.0348,0.0373,0.0323,0.0301,0.0292,0.0407,0.0407,0.0408,0.0409,0,0,0.0755,0.0706,0.0707,0.067,0.0653,0.0665,0.0624,0.0609,0.0576,0.0563,0.0578,0.0513,0.0497,0.0441,0.0426,0.0413,0.0402,0.0419,0.0347,0.0341,0.0334,0.0311,0.0301,0.041,0.041,0.041,0.041,0,0.0783,0.0768,0.0728,0.0712,0.0687,0.0681,0.0672,0.065,0.0643,0.0598,0.0607,0.0578,0.0526,0.0508,0.0492,0.0426,0.0433,0.0417,0.0383,0.0354,0.0346,0.0339,0.0315,0.0306,0.0412,0.0412,0.0412,0,0.0844,0.0828,0.0808,0.0769,0.0752,0.072,0.0746,0.071,0.0686,0.0699,0.0653,0.0642,0.0618,0.0566,0.0543,0.0555,0.0463,0.0491,0.0487,0.0483,0.0454,0.0445,0.0437,0.0543,0.0544,0.0544,0,0,0.0869,0.0838,0.0819,0.0774,0.0763,0.0753,0.0735,0.0735,0.0713,0.0704,0.069,0.0668,0.0637,0.0617,0.0588,0.0532,0.0526,0.0507,0.0501,0.0496,0.049,0.0459,0.045,0.0546,0.0546,0.0546,0,0,0.088,0.0857,0.0863,0.081,0.0789,0.0767,0.0739,0.0746,0.0719,0.0722,0.072,0.0714,0.0666,0.0654,0.068,0.0596,0.0621,0.0615,0.0605,0.0597,0.0591,0.0593,0.0701,0,0,0,0,0,0.0905,0.086,0.0866,0.0856,0.0805,0.0764,0.0758,0.0755,0.0773,0.0751,0.074,0.0749,0.0667,0.069,0.068,0.0651,0.057,0.0565,0.0561,0.0535,0.0527,0.052,0,0,0,0,0,0,0.0901,0.0889,0.0867,0.0844,0.0832,0.0766,0.0795,0.0793,0.0775,0.0777,0.0751,0.0748,0.0745,0.0695,0.0686,0.0658,0.0704,0.0568,0.0564,0.0561,0.0533,0.0526,0.052,0,0,0,0,0,0.0898,0.0888,0.0807,0.0844,0.0834,0.082,0.0797,0.0796,0.0781,0.0763,0.0761,0.0781,0.0744,0.0736,0.0689,0.0662,0.071,0.0707,0.0566,0.0563,0.056,0.0529,0,0,0,0,0,0,0.0895,0.0886,0.0805,0.0802,0.086,0.0824,0.0818,0.0797,0.0768,0.0765,0.0793,0.0795,0.0743,0.0737,0.0731,0.0664,0.0715,0.0712,0.071,0.0563,0.0561,0.0559,0,0,0,0,0,0,0.0891,0.0883,0.0803,0.0824,0.0823,0.0827,0.0822,0.0781,0.0768,0.0799,0.08,0.0794,0.0752,0.0737,0.0733,0.067,0.0719,0.0716,0.0714,0.0712,0.0562,0.056,0,0,0,0,0,0,0.0888,0.0881,0.0825,0.0824,0.0823,0.0788,0.0791,0.0739,0.0786,0.0801,0.079,0.0792,0.0752,0.0747,0.0734,0.0673,0.0671,0.0719,0.0717,0.0715,0.0714,0,0,0,0,0,0,0,0.0885,0.0932,0.0824,0.0824,0.0824,0.0772,0.0772,0.0771,0.0786,0.0788,0.079,0.0791,0.0738,0.0734,0.0731,0.0676,0,0,0.072,0.0718,0,0,0,0,0,0,0,0,0.0935,0.0933,0.0824,0.0823,0.0822,0.0772,0.0772,0.0771,0.0787,0.0788,0.0789,0.0791,0.0737,0.0734,0.0731,0,0,0,0,0,0,0,0,0,0,0,0,0,0,0,0.0823,0.0823,0,0.0772,0.0772,0.0771,0.0787,0.0788,0.0789,0.079,0.0736,0.0734,0.0731,0,0,0,0,0,0,0,0,0,0,0,0,0,0,0,0,0,0,0,0,0,0,0,0,0,0,0,0,0,0,0,0,0,0,0,0,0,0,0,0,0,0,0,0,0,0,0,0,0,0,0,0,0,0,0,0,0,0,0,0,0,0,0,0,0,0,0,0,0]}],[{"header":{"parameterUnit":"kt","parameterCategory":2,"dx":1,"dy":1,"la1":30.253999710083008,"la2":30.299108505249023,"lo1":-89.0895004272461,"lo2":-89.04439544677734,"nx":28,"ny":28,"refTime":"2022-10-06T21:00:00:Z","depth":0,"parameterNumber":2,"parameterNumberName":"V-component_of_WINDS"},"data":[-3.4553,-3.4603,-3.4606,-3.4663,-3.4674,-3.4713,-3.4728,-3.4746,-3.4761,-3.4807,-3.4833,-3.4838,-3.4852,-3.4882,-3.491,-3.4911,-3.4923,-3.494,-3.4939,-3.4861,-3.485,-3.484,-3.4829,-3.4943,-3.4943,-3.5019,-3.502,-3.502,-3.4501,-3.4514,-3.4544,-3.4575,-3.4601,-3.4587,-3.4609,-3.4631,-3.4666,-3.4683,-3.4709,-3.4748,-3.4778,-3.4785,-3.4814,-3.4836,-3.483,-3.4844,-3.4842,-3.4845,-3.4762,-3.475,-3.4849,-3.4849,-3.4849,-3.4849,-3.4849,-3.4849,-3.4406,-3.4435,-3.4455,-3.4487,-3.4503,-3.4523,-3.455,-3.4557,-3.4585,-3.4616,-3.461,-3.4648,-3.4665,-3.4698,-3.4709,-3.4738,-3.4722,-3.4736,-3.474,-3.4744,-3.475,-3.4642,-3.4742,-3.4742,-3.4742,-3.4741,-3.4741,0,-3.4337,-3.4337,-3.4365,-3.4395,-3.4418,-3.444,-3.446,-3.4477,-3.4473,-3.4496,-3.4529,-3.4548,-3.4585,-3.4615,-3.4641,-3.4648,-3.4633,-3.463,-3.4641,-3.4645,-3.4647,-3.4647,-3.4513,-3.4627,-3.4626,-3.4625,-3.4625,-3.4624,-3.4242,-3.4275,-3.4294,-3.4314,-3.4325,-3.4356,-3.4375,-3.4369,-3.4388,-3.4411,-3.4435,-3.4465,-3.4489,-3.454,-3.4543,-3.457,-3.4562,-3.4606,-3.4566,-3.4569,-3.4564,-3.4563,-3.4566,-3.4614,-3.4615,-3.4616,-3.4617,0,-3.4189,-3.419,-3.424,-3.4255,-3.426,-3.4294,-3.4306,-3.4333,-3.4334,-3.4372,-3.438,-3.4381,-3.4413,-3.4409,-3.4442,-3.4439,-3.4496,-3.4487,-3.4491,-3.4489,-3.4529,-3.4526,-3.4656,-3.4673,-3.4554,-3.4555,-3.4556,0,-3.4108,-3.415,-3.4149,-3.4178,-3.4225,-3.4217,-3.4263,-3.4269,-3.4282,-3.4311,-3.4293,-3.4321,-3.431,-3.4337,-3.4333,-3.4377,-3.4383,-3.4383,-3.4382,-3.4385,-3.4385,-3.4394,-3.4389,-3.4375,-3.4374,-3.4373,-3.4373,0,-3.4025,-3.4072,-3.4119,-3.4129,-3.4148,-3.417,-3.4178,-3.4192,-3.4209,-3.423,-3.4241,-3.4265,-3.4279,-3.4298,-3.4291,-3.4264,-3.4345,-3.4307,-3.4346,-3.4346,-3.4363,-3.4362,-3.4479,-3.4372,-3.4372,-3.4372,-3.4371,0,-3.3959,-3.3982,-3.4049,-3.4064,-3.4076,-3.4106,-3.413,-3.4155,-3.417,-3.4169,-3.4185,-3.4172,-3.4209,-3.4172,-3.4224,-3.4191,-3.4205,-3.4208,-3.4211,-3.4214,-3.4172,-3.4239,-3.435,-3.4362,-3.4218,-3.4216,-3.4215,0,-3.3864,-3.3931,-3.3924,-3.3987,-3.4017,-3.3995,-3.4028,-3.4042,-3.4043,-3.4068,-3.4069,-3.4096,-3.4067,-3.4075,-3.4101,-3.4103,-3.4146,-3.4097,-3.4132,-3.4134,-3.413,-3.4233,-3.4251,-3.4327,-3.4199,-3.42,-3.4202,0,-3.379,-3.3811,-3.3822,-3.3834,-3.3851,-3.3875,-3.3912,-3.3938,-3.3955,-3.3971,-3.4002,-3.404,-3.402,-3.4032,-3.4023,-3.405,-3.4116,-3.4024,-3.4024,-3.4042,-3.4189,-3.4206,-3.4219,-3.4104,-3.4106,-3.4107,-3.4188,0,-3.3693,-3.3725,-3.3755,-3.3779,-3.3797,-3.3835,-3.383,-3.3849,-3.3839,-3.3839,-3.3883,-3.389,-3.3914,-3.3927,-3.3915,-3.398,-3.3968,-3.3945,-3.3907,-3.3975,-3.4001,-3.4012,-3.3869,-3.3868,-3.3867,-3.3866,0,0,-3.3602,-3.3647,-3.3637,-3.3672,-3.3686,-3.3661,-3.3702,-3.3713,-3.3733,-3.3744,-3.3723,-3.3777,-3.3783,-3.3837,-3.3857,-3.3866,-3.3877,-3.3853,-3.3942,-3.3951,-3.3959,-3.3988,-3.3999,-3.3864,-3.3864,-3.3863,-3.3863,0,-3.3565,-3.3574,-3.3615,-3.3625,-3.364,-3.3638,-3.3648,-3.3657,-3.3658,-3.3701,-3.3678,-3.3703,-3.3744,-3.3755,-3.3765,-3.3847,-3.3827,-3.3855,-3.3901,-3.3933,-3.3943,-3.3951,-3.3982,-3.3992,-3.3861,-3.3861,-3.3861,0,-3.3492,-3.35,-3.3518,-3.3548,-3.3557,-3.3587,-3.3547,-3.3579,-3.3601,-3.3569,-3.3611,-3.3613,-3.3625,-3.3676,-3.3699,-3.368,-3.3783,-3.3748,-3.3754,-3.3756,-3.3786,-3.3798,-3.3808,-3.3669,-3.3668,-3.3668,0,0,-3.3461,-3.3489,-3.3494,-3.354,-3.3547,-3.3543,-3.3557,-3.3548,-3.356,-3.3564,-3.3567,-3.3579,-3.3603,-3.3619,-3.3641,-3.3697,-3.3699,-3.3724,-3.3734,-3.3741,-3.3747,-3.3779,-3.3791,-3.3665,-3.3665,-3.3665,0,0,-3.3445,-3.3452,-3.344,-3.3492,-3.3505,-3.3511,-3.3539,-3.3524,-3.3543,-3.3537,-3.3521,-3.3523,-3.357,-3.3573,-3.3542,-3.3627,-3.359,-3.3597,-3.3623,-3.3635,-3.3644,-3.3642,-3.35,0,0,0,0,0,-3.3403,-3.3452,-3.344,-3.3448,-3.3484,-3.3518,-3.3523,-3.3511,-3.3486,-3.3509,-3.3508,-3.3486,-3.3554,-3.3526,-3.3533,-3.3567,-3.3635,-3.364,-3.3645,-3.3693,-3.3705,-3.3715,0,0,0,0,0,0,-3.3406,-3.3416,-3.3439,-3.3447,-3.3455,-3.3516,-3.3471,-3.3469,-3.3483,-3.3478,-3.3487,-3.3486,-3.3476,-3.3521,-3.3528,-3.3561,-3.3498,-3.3637,-3.3641,-3.3645,-3.3697,-3.3706,-3.3715,0,0,0,0,0,-3.3409,-3.3416,-3.3477,-3.3446,-3.3453,-3.345,-3.3469,-3.3467,-3.3478,-3.3476,-3.3475,-3.3468,-3.3477,-3.3482,-3.3525,-3.3558,-3.3493,-3.3496,-3.364,-3.3643,-3.3647,-3.3701,0,0,0,0,0,0,-3.341,-3.3415,-3.3478,-3.3479,-3.3427,-3.3446,-3.3449,-3.3466,-3.3474,-3.3473,-3.3456,-3.3452,-3.3479,-3.3482,-3.3486,-3.3558,-3.3489,-3.3492,-3.3493,-3.3642,-3.3645,-3.3648,0,0,0,0,0,0,-3.341,-3.3416,-3.3479,-3.3455,-3.3453,-3.3443,-3.3445,-3.3479,-3.3474,-3.3453,-3.345,-3.3454,-3.3472,-3.3482,-3.3485,-3.3539,-3.3486,-3.3489,-3.349,-3.3491,-3.3645,-3.3647,0,0,0,0,0,0,-3.3413,-3.3418,-3.3454,-3.3453,-3.3452,-3.3469,-3.3472,-3.3509,-3.3455,-3.3453,-3.345,-3.3448,-3.3473,-3.3476,-3.3485,-3.3538,-3.3539,-3.3486,-3.3488,-3.3489,-3.349,0,0,0,0,0,0,0,-3.3414,-3.3384,-3.3468,-3.3452,-3.3451,-3.3494,-3.3495,-3.3495,-3.3455,-3.3453,-3.3451,-3.3449,-3.3472,-3.3474,-3.3477,-3.3537,0,0,-3.3486,-3.3487,0,0,0,0,0,0,0,0,-3.3381,-3.3383,-3.3468,-3.3469,-3.3469,-3.3495,-3.3495,-3.3495,-3.3455,-3.3453,-3.3451,-3.345,-3.3472,-3.3475,-3.3477,0,0,0,0,0,0,0,0,0,0,0,0,0,0,0,-3.3468,-3.3469,0,-3.3495,-3.3495,-3.3495,-3.3454,-3.3453,-3.3452,-3.345,-3.3473,-3.3475,-3.3477,0,0,0,0,0,0,0,0,0,0,0,0,0,0,0,0,0,0,0,0,0,0,0,0,0,0,0,0,0,0,0,0,0,0,0,0,0,0,0,0,0,0,0,0,0,0,0,0,0,0,0,0,0,0,0,0,0,0,0,0,0,0,0,0,0,0,0,0,0]}]]]